Voltar ao catálogo

SL-6 R/B(2)

AtivoHEO
NORAD 24296·ROCKET BODY·🇷🇺 Russia

Lançado Aug 29, 1996 de Plesetsk Cosmodrome

Loading…

Próximas Passagens (próximas 24 horas)

TLE

AtualizadoSource: Space-Track

Época: Sep 10, 2026, 03:08 UTC

1 24296U 96050F   26253.13109683  .00000022  00000-0 -53241-3 0  9995
2 24296  62.6482 170.0306 5574380 264.0250  33.3013  4.15061742455187

Acompanhe SL-6 R/B(2) em tempo real com AllMySat

Download on the App Store